User: anonymous
Location: Bonn
(50.7330°N, 7.1000°E)
Time: 23:54:50
(UTC+02:00)
Language:

Cosmos 1933 Rocket - Orbit

View from above orbital plane
View from above orbital plane
View from above satellite
View from above satellite

Ground track
Ground track

The orbit data is extracted from the following two-line orbital elements,

1 18959U 88020B   14272.72658606  .00000580  00000-0  68533-4 0  3688
2 18959 082.5353 117.0531 0017867 161.9864 245.2565 14.82864319433625
Epoch (UTC): 29 September 2014 17:26:17
Eccentricity: 0.0017867
inclination: 82.5353°
perigee height: 608 km
apogee height: 633 km
right ascension of ascending node: 117.0531°
argument of perigee: 161.9864°
revolutions per day: 14.82864319
mean anomaly at epoch: 245.2565°
orbit number at epoch: 43362

The dashed part of the orbit path shows where the satellite is in the earth's shadow,  

DLR